FW8327 Weather Reports


Display with metric or nautical units.
time (UTC)temp
F
wind
direction
speed
MPH
gust
MPH
rain 1hr
in
rain 24hr
in
rain mn
in
humidity
%
barometer
mb
20260902212805 93 252 0.0 0.0 0.00 0.00 0.00 64 1013.9
20260902212305 93 173 0.0 0.0 0.00 0.00 0.00 64 1013.8
20260902211758 93 167 0.0 0.0 0.00 0.00 0.00 64 1013.8
20260902211253 92 131 0.0 0.0 0.00 0.00 0.00 64 1013.6
20260902210748 93 243 0.0 1.0 0.00 0.00 0.00 66 1013.8
20260902210243 94 255 0.0 2.0 0.00 0.00 0.00 63 1013.8
20260902205741 93 228 0.0 0.0 0.00 0.00 0.00 64 1013.7
20260902205236 93 261 1.0 2.0 0.00 0.00 0.00 62 1013.8
20260902204731 93 168 0.0 0.0 0.00 0.00 0.00 65 1013.9
20260902204227 93 262 0.0 1.0 0.00 0.00 0.00 65 1013.9
20260902203721 93 193 1.0 2.0 0.00 0.00 0.00 66 1014.1
20260902203216 93 173 0.0 0.0 0.00 0.00 0.00 64 1014.0
20260902202710 94 225 0.0 0.0 0.00 0.00 0.00 65 1014.2
20260902202208 94 235 0.0 0.0 0.00 0.00 0.00 64 1013.9
20260902201704 93 166 0.0 0.0 0.00 0.00 0.00 64 1014.2
20260902201203 95 269 0.0 0.0 0.00 0.00 0.00 64 1014.4
20260902200658 93 181 0.0 0.0 0.00 0.00 0.00 66 1014.2
20260902200154 93 223 1.0 2.0 0.00 0.00 0.00 64 1014.2
20260902195648 93 157 0.0 0.0 0.00 0.00 0.00 65 1014.3
20260902195143 93 164 0.0 0.0 0.00 0.00 0.00 67 1014.3
20260902194641 93 245 0.0 0.0 0.00 0.00 0.00 66 1014.5
20260902194136 94 229 0.0 0.0 0.00 0.00 0.00 65 1014.5
20260902193632 93 289 0.0 0.0 0.00 0.00 0.00 65 1014.4
20260902193127 94 146 0.0 1.0 0.00 0.00 0.00 64 1014.5
20260902192625 94 204 0.0 0.0 0.00 0.00 0.00 64 1014.8
20260902192125 94 159 0.0 0.0 0.00 0.00 0.00 65 1014.7
20260902191619 94 175 0.0 0.0 0.00 0.00 0.00 65 1014.7
20260902191114 94 170 0.0 0.0 0.00 0.00 0.00 65 1014.6
20260902190610 94 211 0.0 0.0 0.00 0.00 0.00 63 1014.4
20260902190105 93 179 0.0 0.0 0.00 0.00 0.00 65 1014.8
20260902185601 94 256 0.0 0.0 0.00 0.00 0.00 64 1014.6
20260902185056 94 139 0.0 0.0 0.00 0.00 0.00 62 1014.8
20260902184551 94 174 0.0 0.0 0.00 0.00 0.00 64 1014.8
20260902184046 93 318 0.0 0.0 0.00 0.00 0.00 65 1014.8
20260902183543 93 152 0.0 0.0 0.00 0.00 0.00 64 1014.7
20260902183039 93 156 0.0 0.0 0.00 0.00 0.00 65 1014.4
20260902182535 93 149 0.0 0.0 0.00 0.00 0.00 65 1014.9
20260902182031 93 164 0.0 0.0 0.00 0.00 0.00 66 1015.0
20260902181527 93 154 0.0 0.0 0.00 0.00 0.00 64 1015.1
20260902181020 93 114 0.0 0.0 0.00 0.00 0.00 66 1015.0
20260902180515 93 181 0.0 0.0 0.00 0.00 0.00 66 1014.9
20260902180011 93 190 0.0 0.0 0.00 0.00 0.00 65 1015.0
20260902175511 93 170 0.0 0.0 0.00 0.00 0.00 65 1014.9
20260902175007 93 167 0.0 0.0 0.00 0.00 0.00 68 1015.3
20260902174503 93 183 0.0 0.0 0.00 0.00 0.00 67 1015.2
20260902173958 93 167 0.0 0.0 0.00 0.00 0.00 68 1015.2
20260902173458 93 185 0.0 0.0 0.00 0.00 0.00 68 1015.3
20260902172953 93 139 0.0 0.0 0.00 0.00 0.00 67 1015.4
20260902172452 93 167 0.0 0.0 0.00 0.00 0.00 67 1015.3
20260902171948 93 147 0.0 0.0 0.00 0.00 0.00 68 1015.2
20260902171443 93 170 0.0 0.0 0.00 0.00 0.00 69 1015.4
20260902170939 92 195 0.0 1.0 0.00 0.00 0.00 67 1015.4
20260902170434 93 144 0.0 0.0 0.00 0.00 0.00 67 1015.4
20260902165930 92 252 0.0 0.0 0.00 0.00 0.00 67 1015.3
20260902165428 92 138 0.0 0.0 0.00 0.00 0.00 68 1015.5
20260902164923 93 166 0.0 0.0 0.00 0.00 0.00 68 1015.4
20260902164418 91 163 0.0 0.0 0.00 0.00 0.00 69 1015.7
20260902163917 91 153 0.0 0.0 0.00 0.00 0.00 70 1015.5
20260902163413 91 278 0.0 0.0 0.00 0.00 0.00 69 1015.7
20260902162910 91 280 0.0 1.0 0.00 0.00 0.00 67 1015.9
20260902162406 92 224 0.0 0.0 0.00 0.00 0.00 68 1015.7
20260902161900 92 168 0.0 0.0 0.00 0.00 0.00 66 1015.7
20260902161355 91 164 0.0 0.0 0.00 0.00 0.00 67 1015.6
20260902160851 90 177 0.0 0.0 0.00 0.00 0.00 69 1015.8
20260902160347 89 146 0.0 0.0 0.00 0.00 0.00 68 1015.7
20260902155845 89 240 0.0 0.0 0.00 0.00 0.00 71 1015.7
20260902155344 89 187 0.0 0.0 0.00 0.00 0.00 68 1015.8
20260902154839 89 272 0.0 1.0 0.00 0.00 0.00 69 1015.7
20260902154335 89 191 0.0 0.0 0.00 0.00 0.00 70 1015.6
20260902153833 89 174 0.0 0.0 0.00 0.00 0.00 70 1015.8
20260902153332 89 176 0.0 0.0 0.00 0.00 0.00 69 1015.9
20260902152829 89 256 0.0 0.0 0.00 0.00 0.00 72 1015.9
20260902152325 89 165 0.0 0.0 0.00 0.00 0.00 73 1015.7
20260902151820 90 189 0.0 0.0 0.00 0.00 0.00 72 1015.8
20260902151315 89 165 0.0 0.0 0.00 0.00 0.00 73 1015.7
20260902150809 89 162 0.0 0.0 0.00 0.00 0.00 72 1015.8
20260902150306 89 159 0.0 0.0 0.00 0.00 0.00 76 1015.9
20260902145805 88 206 0.0 0.0 0.00 0.00 0.00 74 1015.9
20260902145300 88 194 0.0 0.0 0.00 0.00 0.00 75 1015.8
20260902144756 87 138 0.0 0.0 0.00 0.00 0.00 77 1015.9
20260902144251 86 250 0.0 1.0 0.00 0.00 0.00 76 1015.9
20260902143746 87 256 1.0 1.0 0.00 0.00 0.00 75 1015.9
20260902143241 86 256 0.0 0.0 0.00 0.00 0.00 77 1016.0
20260902142737 85 238 0.0 1.0 0.00 0.00 0.00 79 1015.9
20260902142233 86 206 0.0 0.0 0.00 0.00 0.00 79 1015.8
20260902141732 85 156 0.0 0.0 0.00 0.00 0.00 79 1015.8
20260902141229 85 238 0.0 0.0 0.00 0.00 0.00 79 1016.1
20260902140723 84 203 0.0 0.0 0.00 0.00 0.00 79 1015.9
20260902140218 84 165 0.0 0.0 0.00 0.00 0.00 79 1016.0
20260902135717 84 151 0.0 0.0 0.00 0.00 0.00 80 1016.2
20260902135214 83 267 1.0 1.0 0.00 0.00 0.00 80 1016.2
20260902134713 83 173 0.0 0.0 0.00 0.00 0.00 82 1016.3
20260902134208 81 176 0.0 0.0 0.00 0.00 0.00 84 1016.1
20260902133703 81 180 0.0 0.0 0.00 0.00 0.00 84 1016.5
20260902133202 81 158 0.0 0.0 0.00 0.00 0.00 85 1016.4
20260902132658 81 157 0.0 0.0 0.00 0.00 0.00 85 1016.4
20260902132153 81 224 0.0 1.0 0.00 0.00 0.00 84 1016.3
20260902131649 81 225 0.0 0.0 0.00 0.00 0.00 85 1016.6
20260902131145 80 163 0.0 0.0 0.00 0.00 0.00 85 1016.6
20260902130640 80 170 0.0 0.0 0.00 0.00 0.00 84 1016.1
20260902130135 80 148 0.0 0.0 0.00 0.00 0.00 85 1016.2
20260902125631 80 166 0.0 0.0 0.00 0.00 0.00 85 1016.3
20260902125126 79 241 0.0 0.0 0.00 0.00 0.00 85 1016.5
20260902124623 79 164 0.0 0.0 0.00 0.00 0.00 86 1016.2
20260902124122 79 171 0.0 0.0 0.00 0.00 0.00 86 1016.3
20260902123619 79 187 0.0 0.0 0.00 0.00 0.00 86 1016.2
20260902123113 78 194 0.0 0.0 0.00 0.00 0.00 87 1016.4
20260902122613 77 159 0.0 0.0 0.00 0.00 0.00 89 1016.2
20260902122108 77 154 0.0 0.0 0.00 0.00 0.00 90 1016.2
20260902121603 76 146 0.0 0.0 0.00 0.00 0.00 90 1016.4
20260902121058 76 163 0.0 0.0 0.00 0.00 0.00 91 1016.3
20260902120554 75 160 0.0 0.0 0.00 0.00 0.00 91 1016.3
20260902120050 75 152 0.0 0.0 0.00 0.00 0.00 91 1016.2
20260902115545 75 172 0.0 0.0 0.00 0.00 0.00 92 1016.1
20260902115041 75 154 0.0 0.0 0.00 0.00 0.00 92 1016.5
20260902114537 75 169 0.0 0.0 0.00 0.00 0.00 92 1016.4
20260902114036 75 168 0.0 0.0 0.00 0.00 0.00 92 1016.3
20260902113532 75 169 0.0 0.0 0.00 0.00 0.00 92 1016.3
20260902113027 75 170 0.0 0.0 0.00 0.00 0.00 92 1016.1
20260902112523 75 168 0.0 0.0 0.00 0.00 0.00 92 1015.8
20260902112019 74 168 0.0 0.0 0.00 0.00 0.00 92 1015.8
20260902111515 74 161 0.0 0.0 0.00 0.00 0.00 92 1015.9
20260902111010 74 151 0.0 0.0 0.00 0.00 0.00 92 1016.0
20260902110507 74 155 0.0 0.0 0.00 0.00 0.00 92 1016.1
20260902110001 74 165 0.0 0.0 0.00 0.00 0.00 92 1016.0
20260902105451 74 159 0.0 0.0 0.00 0.00 0.00 92 1015.9
20260902104951 75 158 0.0 0.0 0.00 0.00 0.00 92 1015.7
20260902104446 75 149 0.0 0.0 0.00 0.00 0.00 92 1015.6
20260902103941 74 250 0.0 0.0 0.00 0.00 0.00 92 1016.0
20260902103436 74 160 0.0 0.0 0.00 0.00 0.00 92 1015.7
20260902102931 74 174 0.0 0.0 0.00 0.00 0.00 93 1015.8
20260902102428 74 160 0.0 0.0 0.00 0.00 0.00 93 1015.5
20260902101924 74 165 0.0 0.0 0.00 0.00 0.00 94 1015.6
20260902101418 73 147 0.0 0.0 0.00 0.00 0.00 95 1015.4
20260902100917 73 149 0.0 0.0 0.00 0.00 0.00 95 1015.4
20260902100412 73 153 0.0 0.0 0.00 0.00 0.00 95 1015.3
20260902095906 73 151 0.0 0.0 0.00 0.00 0.00 95 1015.5
20260902095401 73 158 0.0 0.0 0.00 0.00 0.00 94 1015.6
20260902094901 73 158 0.0 0.0 0.00 0.00 0.00 94 1015.4
20260902094357 73 147 0.0 0.0 0.00 0.00 0.00 94 1015.4
20260902093856 73 150 0.0 0.0 0.00 0.00 0.00 94 1015.4
20260902093351 73 153 0.0 0.0 0.00 0.00 0.00 95 1015.2
20260902092850 73 153 0.0 0.0 0.00 0.00 0.00 95 1015.3
20260902092341 73 153 0.0 0.0 0.00 0.00 0.00 94 1015.0
20260902091841 74 153 0.0 0.0 0.00 0.00 0.00 94 1015.1
20260902091336 74 153 0.0 0.0 0.00 0.00 0.00 93 1015.2
20260902090833 75 149 0.0 0.0 0.00 0.00 0.00 92 1015.2
20260902090332 75 159 0.0 0.0 0.00 0.00 0.00 91 1015.4
20260902085831 75 159 0.0 0.0 0.00 0.00 0.00 91 1015.1
20260902085327 75 167 0.0 0.0 0.00 0.00 0.00 91 1015.0
20260902084822 75 159 0.0 0.0 0.00 0.00 0.00 91 1015.2
20260902084319 76 150 0.0 0.0 0.00 0.00 0.00 91 1015.0
20260902083813 76 158 0.0 0.0 0.00 0.00 0.00 91 1015.0
20260902083308 76 172 0.0 0.0 0.00 0.00 0.00 90 1015.2
20260902082803 76 148 0.0 0.0 0.00 0.00 0.00 90 1015.0
20260902082259 76 151 0.0 0.0 0.00 0.00 0.00 90 1015.0
20260902081755 75 152 0.0 0.0 0.00 0.00 0.00 91 1014.9
20260902081251 75 159 0.0 0.0 0.00 0.00 0.00 91 1015.3
20260902080745 75 159 0.0 0.0 0.00 0.00 0.00 91 1015.0
20260902080243 75 153 0.0 0.0 0.00 0.00 0.00 91 1015.0
20260902075741 75 157 0.0 0.0 0.00 0.00 0.00 91 1014.8
20260902075237 75 159 0.0 0.0 0.00 0.00 0.00 91 1014.9
20260902074732 75 160 0.0 0.0 0.00 0.00 0.00 92 1015.0
20260902074228 75 160 0.0 0.0 0.00 0.00 0.00 92 1015.0
20260902073723 75 161 0.0 0.0 0.00 0.00 0.00 93 1015.0
20260902073219 74 160 0.0 0.0 0.00 0.00 0.00 93 1015.0
20260902072715 74 155 0.0 0.0 0.00 0.00 0.00 94 1015.0
20260902072211 75 155 0.0 0.0 0.00 0.00 0.00 94 1014.8
20260902071706 75 155 0.0 0.0 0.00 0.00 0.00 94 1014.9
20260902071201 75 155 0.0 0.0 0.00 0.00 0.00 93 1014.7
20260902070658 75 155 0.0 0.0 0.00 0.00 0.00 94 1014.7
20260902070157 75 155 0.0 0.0 0.00 0.00 0.00 94 1015.0
20260902065655 75 155 0.0 0.0 0.00 0.00 0.00 94 1015.0
20260902065152 75 155 0.0 0.0 0.00 0.00 0.00 94 1014.9
20260902064647 75 155 0.0 0.0 0.00 0.00 0.00 95 1015.1
20260902064143 75 156 0.0 0.0 0.00 0.00 0.00 96 1015.1
20260902063638 75 155 0.0 0.0 0.00 0.00 0.00 96 1015.0
20260902063133 75 155 0.0 0.0 0.00 0.00 0.00 96 1015.0
20260902062632 75 155 0.0 0.0 0.00 0.00 0.00 96 1015.2
20260902062127 75 155 0.0 0.0 0.00 0.00 0.00 96 1015.2
20260902061626 75 155 0.0 0.0 0.00 0.00 0.00 95 1015.0
20260902061122 75 155 0.0 0.0 0.00 0.00 0.00 95 1015.0
20260902060619 75 156 0.0 0.0 0.00 0.00 0.00 95 1015.0
20260902060115 75 156 0.0 0.0 0.00 0.00 0.00 95 1015.3
20260902055610 75 156 0.0 0.0 0.00 0.00 0.00 95 1015.2
20260902055105 75 155 0.0 0.0 0.00 0.00 0.00 95 1015.2
20260902054600 75 155 0.0 0.0 0.00 0.00 0.00 95 1015.2
20260902054056 75 155 0.0 0.0 0.00 0.00 0.00 95 1015.3
20260902053551 75 155 0.0 0.0 0.00 0.00 0.00 95 1015.1
20260902053051 76 155 0.0 0.0 0.00 0.00 0.00 95 1015.1
20260902052545 76 155 0.0 0.0 0.00 0.00 0.00 95 1015.1
20260902052041 76 155 0.0 0.0 0.00 0.00 0.00 94 1015.1
20260902051540 76 155 0.0 0.0 0.00 0.00 0.00 94 1015.3
20260902051039 76 156 0.0 0.0 0.00 0.00 0.00 94 1015.2
20260902050534 76 156 0.0 0.0 0.00 0.00 0.00 94 1015.3
20260902050030 76 156 0.0 0.0 0.00 0.00 0.00 94 1015.2
20260902045525 76 156 0.0 0.0 0.00 0.00 0.00 94 1014.9
20260902045022 77 156 0.0 0.0 0.00 0.00 0.00 94 1015.1
20260902044516 77 156 0.0 0.0 0.00 0.00 0.00 94 1015.0
20260902044012 76 156 0.0 0.0 0.00 0.00 0.00 95 1015.1
20260902043507 77 156 0.0 0.0 0.00 0.00 0.00 95 1015.0
20260902043006 77 156 0.0 0.0 0.00 0.00 0.00 95 1015.0
20260902042501 76 156 0.0 0.0 0.00 0.00 0.00 95 1015.3
20260902041956 76 159 0.0 0.0 0.00 0.00 0.00 96 1015.1
20260902041451 76 159 0.0 0.0 0.00 0.00 0.00 96 1015.1
20260902040950 76 159 0.0 0.0 0.00 0.00 0.00 97 1015.1
20260902040444 76 159 0.0 0.0 0.00 0.00 0.00 96 1015.2
20260902035943 76 159 0.0 0.0 0.00 0.00 0.00 97 1015.2
20260902035438 76 160 0.0 0.0 0.00 0.00 0.00 96 1015.1
20260902034933 76 153 0.0 0.0 0.00 0.00 0.00 96 1015.2
20260902034428 77 153 0.0 0.0 0.00 0.00 0.00 96 1015.4
20260902033927 77 154 0.0 0.0 0.00 0.00 0.00 95 1015.1
20260902033426 77 153 0.0 0.0 0.00 0.00 0.00 95 1015.1
20260902032925 77 153 0.0 0.0 0.00 0.00 0.00 95 1015.2
20260902032420 77 153 0.0 0.0 0.00 0.00 0.00 95 1015.1
20260902031915 78 153 0.0 0.0 0.00 0.00 0.00 95 1015.1
20260902031411 78 153 0.0 0.0 0.00 0.00 0.00 95 1014.9
20260902030907 78 153 0.0 0.0 0.00 0.00 0.00 95 1015.1
20260902030401 78 153 0.0 0.0 0.00 0.00 0.00 94 1015.1
20260902025900 78 153 0.0 0.0 0.00 0.00 0.00 94 1015.1
20260902025355 78 153 0.0 0.0 0.00 0.00 0.00 94 1015.2
20260902024850 79 153 0.0 0.0 0.00 0.00 0.00 94 1015.3
20260902024346 79 153 0.0 0.0 0.00 0.00 0.00 94 1015.0
20260902023841 79 153 0.0 0.0 0.00 0.00 0.00 94 1015.1
20260902023336 79 153 0.0 0.0 0.00 0.00 0.00 93 1015.3
20260902022835 79 153 0.0 0.0 0.00 0.00 0.00 93 1015.2
20260902022331 79 153 0.0 0.0 0.00 0.00 0.00 93 1015.2
20260902021826 79 153 0.0 0.0 0.00 0.00 0.00 93 1015.1
20260902021321 80 153 0.0 0.0 0.00 0.00 0.00 93 1015.1
20260902020817 80 153 0.0 0.0 0.00 0.00 0.00 92 1015.2
20260902020313 80 153 0.0 0.0 0.00 0.00 0.00 92 1015.1
20260902015808 80 153 0.0 0.0 0.00 0.00 0.00 92 1015.1
20260902015306 80 153 0.0 0.0 0.00 0.00 0.00 92 1015.1
20260902014800 80 153 0.0 0.0 0.00 0.00 0.00 92 1015.0
20260902014256 80 153 0.0 0.0 0.00 0.00 0.00 92 1015.0
20260902013755 80 153 0.0 0.0 0.00 0.00 0.00 92 1015.0
20260902013250 80 153 0.0 0.0 0.00 0.00 0.00 92 1014.9
20260902012745 80 153 0.0 0.0 0.00 0.00 0.00 92 1014.9
20260902012241 80 153 0.0 0.0 0.00 0.00 0.00 92 1014.8
20260902011737 81 153 0.0 0.0 0.00 0.00 0.00 91 1014.9
20260902011236 81 153 0.0 0.0 0.00 0.00 0.00 90 1014.7
20260902010736 82 153 0.0 0.0 0.00 0.00 0.00 90 1014.6
20260902010232 82 153 0.0 0.0 0.00 0.00 0.00 89 1014.6
20260902005730 82 153 0.0 0.0 0.00 0.00 0.00 89 1014.4
20260902005225 82 153 0.0 0.0 0.00 0.00 0.00 88 1014.5
20260902004725 82 153 0.0 0.0 0.00 0.00 0.00 88 1014.4
20260902004220 82 153 0.0 0.0 0.00 0.00 0.00 89 1014.5
20260902003710 83 153 0.0 0.0 0.00 0.00 0.00 88 1014.4
20260902003205 83 153 0.0 0.0 0.00 0.00 0.00 87 1014.4
20260902002700 84 153 0.0 0.0 0.00 0.00 0.00 85 1014.7
20260902002155 84 153 0.0 0.0 0.00 0.00 0.00 85 1014.5
20260902001650 85 153 0.0 0.0 0.00 0.00 0.00 84 1014.5
20260902001149 86 153 0.0 0.0 0.00 0.00 0.00 83 1014.4
20260902000645 86 153 0.0 0.0 0.00 0.00 0.00 81 1014.5
20260902000140 86 153 0.0 0.0 0.00 0.00 0.00 80 1014.3
20260901235640 87 153 0.0 0.0 0.00 0.00 0.00 81 1014.5
20260901235135 88 159 0.0 0.0 0.00 0.00 0.00 78 1014.6
20260901234634 89 159 0.0 0.0 0.00 0.00 0.00 75 1014.4
20260901234130 89 171 0.0 0.0 0.00 0.00 0.00 76 1014.6
20260901233624 89 205 0.0 0.0 0.00 0.00 0.00 75 1014.7
20260901233121 89 178 0.0 0.0 0.00 0.00 0.00 76 1014.6
20260901232620 89 194 0.0 0.0 0.00 0.00 0.00 74 1014.7
20260901232115 89 190 0.0 0.0 0.00 0.00 0.00 74 1014.7
20260901231613 89 225 0.0 0.0 0.00 0.00 0.00 74 1014.7
20260901231108 89 199 0.0 0.0 0.00 0.00 0.00 75 1014.6
20260901230604 89 246 0.0 0.0 0.00 0.00 0.00 75 1014.8
20260901230104 90 212 0.0 0.0 0.00 0.00 0.00 74 1014.8
20260901225559 90 196 0.0 0.0 0.00 0.00 0.00 74 1014.7
20260901225058 91 206 0.0 0.0 0.00 0.00 0.00 71 1014.9
20260901224554 91 248 0.0 0.0 0.00 0.00 0.00 69 1014.6
20260901224050 91 223 0.0 0.0 0.00 0.00 0.00 71 1014.7
20260901223546 91 236 0.0 0.0 0.00 0.00 0.00 71 1014.6
20260901223041 91 181 0.0 0.0 0.00 0.00 0.00 70 1014.6
20260901222537 92 195 0.0 0.0 0.00 0.00 0.00 69 1014.5
20260901222033 92 209 0.0 0.0 0.00 0.00 0.00 66 1014.7
20260901221529 93 236 0.0 0.0 0.00 0.00 0.00 67 1014.5
20260901221024 92 210 0.0 0.0 0.00 0.00 0.00 67 1014.5
20260901220524 92 201 0.0 0.0 0.00 0.00 0.00 69 1014.6
20260901220022 92 242 0.0 0.0 0.00 0.00 0.00 68 1014.6
20260901215521 92 194 0.0 1.0 0.00 0.00 0.00 68 1014.6
20260901215021 93 172 0.0 0.0 0.00 0.00 0.00 69 1014.5
20260901214520 92 165 0.0 0.0 0.00 0.00 0.00 67 1014.5
20260901214014 92 259 0.0 0.0 0.00 0.00 0.00 68 1014.7
20260901213514 92 171 0.0 0.0 0.00 0.00 0.00 70 1014.5
20260901213008 92 241 0.0 0.0 0.00 0.00 0.00 68 1014.5